Change the Weather History Date:

Saturday, April 5, 2014

  Actual Average Record
Temperature  
Mean Temperature 37 °F -  
Max Temperature 45 °F 51 °F 76 °F (2005)
Min Temperature 29 °F 33 °F 20 °F (2002)
Degree Days  
Heating Degree Days 28 23  
Month to date heating degree days 140 119  
Since 1 July heating degree days 7148 5989  
Cooling Degree Days 0 0  
Month to date cooling degree days 0 0  
Year to date cooling degree days 0 0  
Moisture  
Dew Point 22 °F    
Average Humidity 59    
Maximum Humidity 78    
Minimum Humidity 39    
Precipitation  
Precipitation 0.00 in 0.09 in 0.55 in (2010)
Month to date precipitation 0.19 0.45  
Year to date precipitation 2.97 5.82  
Sea Level Pressure  
Sea Level Pressure 30.15 in    
Wind  
Wind Speed 8 mph (SW)    
Max Wind Speed 17 mph    
Max Gust Speed 20 mph    
Visibility 10 miles    
Events      
T = Trace of Precipitation, MM = Missing Value Source: NWS Daily Summary

Daily Weather History Graph

Daily Weather History Graph

Search for Another Location

Airport or City:

Trip Planner

Search our weather history database for the weather conditions in past years. The results will help you decide how hot, cold, wet, or windy it might be!

Date:

Astronomy

Apr. 05, 2014 Rise Set
Actual Time 6:27 AM CDT 7:21 PM CDT
Civil Twilight 5:58 AM CDT 7:50 PM CDT
Nautical Twilight 5:24 AM CDT 8:24 PM CDT
Astronomical Twilight 4:49 AM CDT 9:00 PM CDT
Moon 10:30 AM CDT (4/5) 12:35 AM CDT (4/5)
Length of Visible Light 13h 52m
Length of Day
12h 54m
Waxing Crescent, 34% of the Moon is Illuminated
Apr 5
Waxing Crescent
Apr 7
First Quarter
Apr 15
Full
Apr 22
Last Quarter
Apr 29
New

Hourly Weather History & Observations

Time (CDT) Temp. Windchill Dew Point Humidity Pressure Visibility Wind Dir Wind Speed Gust Speed Precip Events Conditions
12:52 AM 33.1 °F 26.1 °F 23.0 °F 66% 30.03 in 10.0 mi WNW 8.1 mph - N/A   Partly Cloudy
1:52 AM 32.0 °F 26.4 °F 24.1 °F 73% 30.04 in 10.0 mi WNW 5.8 mph - N/A   Scattered Clouds
2:52 AM 32.0 °F 28.7 °F 24.1 °F 73% 30.06 in 10.0 mi West 3.5 mph - N/A   Mostly Cloudy
3:52 AM 33.1 °F 28.7 °F 25.0 °F 72% 30.08 in 10.0 mi West 4.6 mph - N/A   Overcast
4:33 AM 33.1 °F 28.7 °F 24.1 °F 70% 30.06 in 10.0 mi WNW 4.6 mph - N/A   Mostly Cloudy
4:41 AM 33.1 °F 27.7 °F 24.1 °F 70% 30.06 in 10.0 mi Variable 5.8 mph - N/A   Scattered Clouds
4:52 AM 33.1 °F 27.7 °F 24.1 °F 70% 30.10 in 10.0 mi WNW 5.8 mph - N/A   Clear
5:52 AM 30.9 °F 25.2 °F 23.0 °F 72% 30.12 in 10.0 mi NW 5.8 mph - N/A   Clear
6:52 AM 28.9 °F 25.2 °F 23.0 °F 78% 30.15 in 10.0 mi WNW 3.5 mph - N/A   Clear
7:52 AM 33.1 °F 28.7 °F 25.0 °F 72% 30.18 in 10.0 mi West 4.6 mph - N/A   Clear
8:52 AM 37.0 °F 31.0 °F 23.0 °F 57% 30.20 in 10.0 mi WNW 8.1 mph - N/A   Clear
9:52 AM 39.9 °F 35.8 °F 21.0 °F 47% 30.21 in 10.0 mi NNW 5.8 mph - N/A   Clear
10:52 AM 43.0 °F 38.8 °F 21.0 °F 42% 30.21 in 10.0 mi Variable 6.9 mph - N/A   Clear
11:52 AM 43.0 °F 40.3 °F 19.9 °F 40% 30.21 in 10.0 mi Variable 4.6 mph - N/A   Clear
12:52 PM 42.1 °F 36.1 °F 21.9 °F 45% 30.21 in 10.0 mi ESE 10.4 mph - N/A   Clear
1:52 PM 43.0 °F 36.8 °F 21.9 °F 43% 30.20 in 10.0 mi SE 11.5 mph - N/A   Clear
2:52 PM 42.1 °F 34.2 °F 21.0 °F 43% 30.19 in 10.0 mi SE 16.1 mph - N/A   Clear
3:52 PM 42.1 °F 35.7 °F 21.0 °F 43% 30.18 in 10.0 mi SE 11.5 mph - N/A   Clear
4:52 PM 41.0 °F 33.5 °F 21.0 °F 45% 30.17 in 10.0 mi ESE 13.8 mph - N/A   Clear
5:52 PM 39.0 °F 31.4 °F 19.9 °F 46% 30.17 in 10.0 mi SSE 12.7 mph - N/A   Clear
6:52 PM 37.0 °F 29.3 °F 19.9 °F 50% 30.17 in 10.0 mi SE 11.5 mph - N/A   Clear
7:52 PM 35.1 °F 28.6 °F 19.0 °F 52% 30.17 in 10.0 mi SE 8.1 mph - N/A   Clear
8:52 PM 36.0 °F 29.6 °F 21.9 °F 57% 30.18 in 10.0 mi SSE 8.1 mph - N/A   Clear
9:52 PM 32.0 °F 27.5 °F 21.9 °F 66% 30.18 in 10.0 mi SSW 4.6 mph - N/A   Clear
10:52 PM 32.0 °F 26.4 °F 19.0 °F 59% 30.18 in 10.0 mi SW 5.8 mph - N/A   Clear
11:52 PM 30.9 °F 27.5 °F 19.9 °F 64% 30.18 in 10.0 mi SW 3.5 mph - N/A   Clear